Eden Prairie, MN

3:49 AM CDT on September 25, 2016 (GMT -0500)
Flying Cloud

Weather History for KFCM - April, 2014

Change the Weather History Date:

Thursday, April 17, 2014

  Actual Average Record
Temperature  
Mean Temperature 35 °F -  
Max Temperature 42 °F 56 °F 81 °F (2016)
Min Temperature 28 °F 37 °F 28 °F (2001)
Degree Days  
Heating Degree Days 30    
Moisture  
Dew Point 26 °F    
Average Humidity 76    
Maximum Humidity 93    
Minimum Humidity 51    
Precipitation  
Precipitation 0.00 in - - ()
Sea Level Pressure  
Sea Level Pressure 30.18 in    
Wind  
Wind Speed 12 mph (NNW)    
Max Wind Speed 18 mph    
Max Gust Speed 25 mph    
Visibility 9 miles    
Events Snow    
Averages and records for this station are not official NWS values.
T = Trace of Precipitation, MM = Missing Value Source: NWS Daily Summary

Daily Weather History Graph

Daily Weather History Graph

Search for Another Location

Airport or City:

Trip Planner

Search our weather history database for the weather conditions in past years. The results will help you decide how hot, cold, wet, or windy it might be!

Date:

Astronomy

Apr. 17, 2014 Rise Set
Actual Time 6:25 AM CDT 8:01 PM CDT
Civil Twilight 5:55 AM CDT 8:32 PM CDT
Nautical Twilight 5:17 AM CDT 9:09 PM CDT
Astronomical Twilight 4:37 AM CDT 9:50 PM CDT
Moon 10:53 PM CDT (4/17) 7:53 AM CDT (4/17)
Length of Visible Light 14h 37m
Length of Day
13h 35m
Waning Gibbous, 93% of the Moon is Illuminated
Apr 17
Waning Gibbous
Apr 22
Last Quarter
Apr 29
New
May 6
First Quarter
May 14
Full

Hourly Weather History & Observations

Time (CDT) Temp. Windchill Dew Point Humidity Pressure Visibility Wind Dir Wind Speed Gust Speed Precip Events Conditions
12:05 AM 30.2 °F 18.9 °F 28.4 °F 93% 29.94 in 1.0 mi North 16.1 mph 23.0 mph 0.00 in Snow Light Snow
12:34 AM 30.2 °F 19.8 °F 28.4 °F 93% 29.95 in 1.2 mi North 13.8 mph 23.0 mph 0.00 in Snow Light Snow
12:48 AM 30.2 °F 18.9 °F 26.6 °F 86% 29.94 in 3.0 mi North 16.1 mph 25.3 mph 0.00 in Snow Light Snow
12:53 AM 30.0 °F 19.1 °F 27.0 °F 88% 29.98 in 6.0 mi North 15.0 mph 25.3 mph 0.00 in   Overcast
1:08 AM 30.2 °F 19.3 °F 26.6 °F 86% 29.96 in 10.0 mi North 15.0 mph 23.0 mph N/A   Overcast
1:53 AM 30.0 °F 17.9 °F 26.1 °F 85% 30.00 in 10.0 mi North 18.4 mph 24.2 mph N/A   Overcast
2:53 AM 30.0 °F 18.7 °F 27.0 °F 88% 30.02 in 6.0 mi North 16.1 mph 23.0 mph N/A   Overcast
3:21 AM 30.2 °F 19.3 °F 26.6 °F 86% 30.01 in 5.0 mi North 15.0 mph 23.0 mph N/A   Overcast
3:53 AM 30.0 °F 19.5 °F 27.0 °F 88% 30.06 in 10.0 mi North 13.8 mph 21.9 mph N/A   Overcast
4:36 AM 30.2 °F 19.8 °F 26.6 °F 86% 30.04 in 10.0 mi North 13.8 mph - N/A   Overcast
4:53 AM 30.0 °F 19.5 °F 27.0 °F 88% 30.09 in 10.0 mi North 13.8 mph 19.6 mph N/A   Overcast
5:53 AM 30.9 °F 22.2 °F 27.0 °F 85% 30.13 in 10.0 mi NNW 10.4 mph - N/A   Overcast
6:53 AM 30.0 °F 19.1 °F 25.0 °F 82% 30.16 in 10.0 mi NNW 15.0 mph 19.6 mph N/A   Overcast
7:53 AM 28.9 °F 19.8 °F 25.0 °F 85% 30.19 in 10.0 mi NW 10.4 mph - N/A   Overcast
8:00 AM 30.2 °F 19.8 °F 24.8 °F 80% 30.15 in 10.0 mi NNW 13.8 mph - N/A   Overcast
8:28 AM 30.2 °F 21.3 °F 26.6 °F 86% 30.18 in 10.0 mi NNW 10.4 mph - N/A   Overcast
8:53 AM 30.0 °F 20.5 °F 26.1 °F 85% 30.22 in 10.0 mi NNW 11.5 mph - N/A   Overcast
9:53 AM 32.0 °F 23.0 °F 27.0 °F 82% 30.25 in 10.0 mi NNW 11.5 mph - N/A   Overcast
10:53 AM 33.1 °F 24.4 °F 27.0 °F 78% 30.29 in 10.0 mi NW 11.5 mph - N/A   Overcast
11:09 AM 33.8 °F 25.3 °F 26.6 °F 75% 30.26 in 10.0 mi NNW 11.5 mph - N/A   Overcast
12:53 PM 35.1 °F 30.1 °F 26.1 °F 70% 30.29 in 10.0 mi NW 5.8 mph - N/A   Overcast
1:53 PM 37.0 °F 32.4 °F 26.1 °F 65% 30.30 in 10.0 mi NW 5.8 mph - N/A   Overcast
2:53 PM 39.0 °F 32.3 °F 28.0 °F 65% 30.30 in 10.0 mi WNW 10.4 mph - N/A   Mostly Cloudy
3:20 PM 41.0 °F 34.3 °F 28.4 °F 61% 30.27 in 10.0 mi NW 11.5 mph - N/A   Scattered Clouds
3:53 PM 42.1 °F 40.2 °F 27.0 °F 55% 30.31 in 10.0 mi Variable 3.5 mph - N/A   Scattered Clouds
4:53 PM 41.0 °F 36.4 °F 26.1 °F 55% 30.32 in 10.0 mi WNW 6.9 mph - N/A   Clear
5:53 PM 42.1 °F 39.2 °F 26.1 °F 53% 30.31 in 10.0 mi NNW 4.6 mph - N/A   Clear
6:53 PM 41.0 °F 38.0 °F 24.1 °F 51% 30.30 in 10.0 mi NW 4.6 mph - N/A   Clear
7:53 PM 39.0 °F - 24.1 °F 55% 30.31 in 10.0 mi Calm Calm - N/A   Clear
8:53 PM 37.0 °F - 24.1 °F 59% 30.33 in 10.0 mi Calm Calm - N/A   Clear
9:53 PM 33.1 °F - 24.1 °F 70% 30.34 in 10.0 mi Calm Calm - N/A   Clear
10:53 PM 32.0 °F 28.7 °F 25.0 °F 75% 30.33 in 10.0 mi NW 3.5 mph - N/A   Clear
11:53 PM 32.0 °F - 24.1 °F 73% 30.34 in 10.0 mi Calm Calm - N/A   Clear